sat.trackr.live / text

‹ back to catalog

STARLINK-36062

NORAD 66794 · 2025-278D

PAYLOAD ACTIVE UNKNOWN

§ Identity

Operator
Country
US
Launch date
2025-12-01
Launch site
AFETR
Launch vehicle
Mass (kg)
RCS (m²)

Purposes: comms

External: N2YO · Heavens-Above · Gunter

§ Orbital elements

Epoch: 2026-05-25T02:33:20.333376Z

Period
94.27 min
Inclination
43.0041°
Eccentricity
0.0001400
Mean motion
15.27591997 rev/d
Perigee alt
482.1 km
Apogee alt
484.0 km
Semi-major
6,861.2 km
B*
5.4339e-4
RAAN
43.0180°
Arg perigee
275.3144°
Mean anomaly
84.7547°
Rev number
2,689

§ Raw data

STARLINK-360621 66794U 25278D   26145.10648534  .00014726  00000+0  54339-3 0  99912 66794  43.0041  43.0180 0001400 275.3144  84.7547 15.27591997 26898

JSON: /api/v1/satellites/66794 · /tle

For live sub-satellite position, see the globe view (requires WebGL).

§ Visibility from observer

Set your observer location to see the next 7 days of passes ≥ 10°. The values pass through the URL so the page stays shareable.

No JS? Fill the form by hand. The geolocation button needs JavaScript.